Haruka

operational
NORAD ID: 24720 Int'l Des: 1997-005 Owner: ISASS Country: J
MEOELLIPTICALHEO_ELLIPTICAL

Über Haruka

Beschreibung wird geladen...

Live-Position

3D-Globus wird geladen...

Nächste Überflüge

Höhenverlauf

Altitude vs Time

uPlot chart will show altitude changes over time

Zweizeiliger Elementsatz

1 24720U 97005A 26061.11729851 .00000345 00000-0 14533-2 0 9995
2 24720 31.3311 342.6893 5980563 118.4243 1.9834 3.84731010405543
Epoch: 2. März 2026 • Age: 25 hours

Aktueller Status

Höhe 21095.9 km
Geschwindigkeit 2.42 km/s
Subsatellitenpunkt -26.44°S, 115.88°E
Startdatum 12. Feb. 1997
Alter 29 years
Typ other

Technische Details

Klassifizierung Payload
Masse 832.00 kg
Trockenmasse 768.00 kg
Gesamtmasse 832.00 kg
Länge 1.00 m
Durchmesser 1.50 m
Spannweite 10.00 m
Form Box + 2 Pan + Dish
Hersteller NEC
Bus-Typ MUSES-B
Phasenstatus In Orbit
Besitzer/Staat ISASS/J

Große Konstellationen

Loading constellations...